sat.trackr.live / text

‹ back to catalog

SKYSAT-C8

NORAD 42990 · 2017-068D

PAYLOAD ACTIVE UNKNOWN

§ Identity

Operator
Country
US
Launch date
2017-10-31
Launch site
AFWTR
Launch vehicle
Mass (kg)
RCS (m²)

Purposes: earth_obs

External: N2YO · Heavens-Above · Gunter

§ Orbital elements

Epoch: 2026-05-24T22:51:13.483296Z

Period
93.72 min
Inclination
97.4489°
Eccentricity
0.0001646
Mean motion
15.36449066 rev/d
Perigee alt
455.5 km
Apogee alt
457.7 km
Semi-major
6,834.8 km
B*
2.7042e-4
RAAN
281.2977°
Arg perigee
106.5988°
Mean anomaly
253.5437°
Rev number
47,874

§ Raw data

SKYSAT-C81 42990U 17068D   26144.95223939  .00009535  00000+0  27042-3 0  99942 42990  97.4489 281.2977 0001646 106.5988 253.5437 15.36449066478740

JSON: /api/v1/satellites/42990 · /tle

For live sub-satellite position, see the globe view (requires WebGL).

§ Visibility from observer

Set your observer location to see the next 7 days of passes ≥ 10°. The values pass through the URL so the page stays shareable.

No JS? Fill the form by hand. The geolocation button needs JavaScript.